This demonstration page uses our WeatherBlox Daily Observations layout. Learn more.

Left ArrowRight Arrow

Hourly Observations for April 9, 2017

Temp ( °F °C ) Dew Point ( °F °C ) Humidity (%) Winds ( mph kmh ) Pressure ( in mb ) Visibility ( mi km ) Precip ( " mm )
12:53 am 00:53 Cloudy 49 9.4 44 6.7 83 83 Calm 30.19 1022 10 16 0.00 0.00
1:53 am 01:53 Cloudy 49 9.4 42 5.6 77 77 SSW 3 6 30.18 1022 10 16 0.00 0.00
2:53 am 02:53 Cloudy 48 8.9 43 6.1 83 83 Calm 30.18 1022 10 16 0.00 0.00
3:53 am 03:53 Partly Cloudy 44 6.7 42 5.6 93 93 N 3 6 30.18 1022 10 16 0.00 0.00
4:53 am 04:53 Clear 43 6.1 42 5.6 97 97 Calm 30.16 1022 10 16 0.00 0.00
5:53 am 05:53 Clear 41 5 40 4.4 96 96 Calm 30.16 1022 10 16 0.00 0.00
6:53 am 06:53 Sunny 42 5.6 41 5 96 96 Calm 30.16 1022 10 16 0.00 0.00
7:53 am 07:53 Sunny 45 7.2 42 5.6 90 90 Calm 30.19 1022 10 16 0.00 0.00
8:53 am 08:53 Sunny 49 9.4 44 6.7 83 83 Calm 30.20 1023 10 16 0.00 0.00
9:53 am 09:53 Sunny 52 11.1 42 5.6 69 69 Calm 30.20 1023 10 16 0.00 0.00
10:53 am 10:53 Partly Cloudy 54 12.2 41 5 62 62 Calm 30.19 1022 10 16 0.00 0.00
11:53 am 11:53 Partly Cloudy 56 13.3 41 5 57 57 VRB 5 7 30.18 1022 10 16 0.00 0.00
12:53 pm 12:53 Mostly Sunny 57 13.9 40 4.4 53 53 S 12 19 30.16 1021 10 16 0.00 0.00
1:53 pm 13:53 Partly Cloudy 58 14.4 40 4.4 51 51 SSW 13 20 30.14 1021 10 16 0.00 0.00
2:53 pm 14:53 Partly Cloudy 60 15.6 40 4.4 47 47 S 14 22 30.12 1020 10 16 0.00 0.00
3:53 pm 15:53 Partly Cloudy 61 16.1 40 4.4 46 46 SW 13 20 30.09 1019 10 16 0.00 0.00
4:53 pm 16:53 Sunny 60 15.6 39 3.9 46 46 S 14 22 30.09 1019 10 16 0.00 0.00
5:53 pm 17:53 Sunny 59 15 40 4.4 49 49 S 14 22 30.08 1019 10 16 0.00 0.00
6:53 pm 18:53 Sunny 58 14.4 39 3.9 50 50 S 14 22 30.07 1018 10 16 0.00 0.00
7:53 pm 19:53 Clear 54 12.2 41 5 62 62 SSE 6 9 30.06 1018 10 16 0.00 0.00
8:53 pm 20:53 Cloudy 55 12.8 40 4.4 57 57 S 14 22 30.06 1018 10 16 0.00 0.00
9:53 pm 21:53 Clear 54 12.2 38 3.3 55 55 S 16 26 30.07 1018 10 16 0.00 0.00
10:53 pm 22:53 Cloudy 54 12.2 38 3.3 55 55 SSW 14 22 30.08 1019 10 16 0.00 0.00
11:53 pm 23:53 Cloudy 54 12.2 39 3.9 57 57 S 14 22 30.09 1019 10 16 0.00 0.00

Powered by AerisWeather